sat.trackr.live / text

‹ back to catalog

STARLINK-33639

NORAD 63481 · 2025-070X

PAYLOAD ACTIVE UNKNOWN

§ Identity

Operator
Country
US
Launch date
2025-04-06
Launch site
AFETR
Launch vehicle
Mass (kg)
RCS (m²)

Purposes: comms

External: N2YO · Heavens-Above · Gunter

§ Orbital elements

Epoch: 2026-09-20T04:49:32.939616Z

Period
94.27 min
Inclination
43.0014°
Eccentricity
0.0001780
Mean motion
15.27562483 rev/d
Perigee alt
481.9 km
Apogee alt
484.3 km
Semi-major
6,861.2 km
B*
4.1180e-4
RAAN
237.8843°
Arg perigee
279.7790°
Mean anomaly
80.2860°
Rev number
8,276

§ Raw data

STARLINK-336391 63481U 25070X   26263.20107569  .00011081  00000+0  41180-3 0  99922 63481  43.0014 237.8843 0001780 279.7790  80.2860 15.27562483 82768

JSON: /api/v1/satellites/63481 · /tle

For live sub-satellite position, see the globe view (requires WebGL).

§ Visibility from observer

Set your observer location to see the next 7 days of passes ≥ 10°. The values pass through the URL so the page stays shareable.

No JS? Fill the form by hand. The geolocation button needs JavaScript.